TANDEM-X

Last updated on Mon Oct 14 2024 00:02:24 GMT+0000 (Coordinated Universal Time)

1 36605U 10030A 24287.47314413 .00005372 00000+0 25894-3 0 9991 2 36605 97.4473 292.9507 0001788 92.4326 267.7113 15.19134600793770
UTC large
Height (km)
Speed (km/s)
/
Latitude / Longitude
Inclination (degrees)
Orbital Period (minutes)
Azimuth
Elevation
Range (km)
Doppler Factor

Next 0 passes for location: London (51.5072 / 0.1276)

Sorry there are no passes over London.